Time,TemperatureF,DewpointF,PressureIn,WindDirection,WindDirectionDegrees,WindSpeedMPH,WindSpeedGustMPH,Humidity,HourlyPrecipIn,Conditions,Clouds,dailyrainin,SoftwareType,DateUTC
2013-10-25 00:00:00,57.9,47.8,30.19,SSE,149,0.0,1.0,69,0.00,,,0.00,Wunderground v.1.15,2013-10-25 05:00:00,
2013-10-25 00:10:00,57.7,47.6,30.19,SSE,149,0.0,1.0,69,0.00,,,0.00,Wunderground v.1.15,2013-10-25 05:10:00,
2013-10-25 00:20:00,57.6,47.5,30.19,SSE,149,0.0,1.0,69,0.00,,,0.00,Wunderground v.1.15,2013-10-25 05:20:00,
2013-10-25 00:30:00,57.5,47.8,30.19,SSE,149,0.0,1.0,70,0.00,,,0.00,Wunderground v.1.15,2013-10-25 05:30:00,
2013-10-25 00:40:00,57.3,47.6,30.19,SSE,149,0.0,1.0,70,0.00,,,0.00,Wunderground v.1.15,2013-10-25 05:40:00,
2013-10-25 00:50:00,57.0,47.3,30.19,SSE,149,0.0,1.0,70,0.00,,,0.00,Wunderground v.1.15,2013-10-25 05:50:00,
2013-10-25 01:00:00,56.9,47.2,30.20,SSE,149,0.0,1.0,70,0.00,,,0.00,Wunderground v.1.15,2013-10-25 06:00:00,
2013-10-25 01:10:00,56.8,47.9,30.20,SSE,149,0.0,1.0,72,0.00,,,0.00,Wunderground v.1.15,2013-10-25 06:10:00,
2013-10-25 01:20:00,56.3,48.1,30.20,SSE,149,0.0,1.0,74,0.00,,,0.00,Wunderground v.1.15,2013-10-25 06:20:00,
2013-10-25 01:30:00,55.9,47.7,30.19,SSE,149,0.0,1.0,74,0.00,,,0.00,Wunderground v.1.15,2013-10-25 06:30:00,
2013-10-25 01:40:00,55.9,47.4,30.19,SSE,149,0.0,1.0,73,0.00,,,0.00,Wunderground v.1.15,2013-10-25 06:40:00,
2013-10-25 01:50:00,55.7,47.9,30.20,SSE,149,0.0,1.0,75,0.00,,,0.00,Wunderground v.1.15,2013-10-25 06:50:00,
2013-10-25 02:00:00,55.3,47.9,30.20,SSE,149,0.0,1.0,76,0.00,,,0.00,Wunderground v.1.15,2013-10-25 07:00:00,
2013-10-25 02:10:00,55.2,47.8,30.20,SSE,149,0.0,1.0,76,0.00,,,0.00,Wunderground v.1.15,2013-10-25 07:10:00,
2013-10-25 02:20:00,55.2,47.8,30.20,SSE,149,0.0,1.0,76,0.00,,,0.00,Wunderground v.1.15,2013-10-25 07:20:00,
2013-10-25 02:30:00,55.2,47.8,30.20,SSE,149,0.0,1.0,76,0.00,,,0.00,Wunderground v.1.15,2013-10-25 07:30:00,
2013-10-25 02:40:00,55.2,47.8,30.20,SSE,149,0.0,1.0,76,0.00,,,0.00,Wunderground v.1.15,2013-10-25 07:40:00,
2013-10-25 02:50:00,55.3,47.9,30.20,SSE,149,0.0,1.0,76,0.00,,,0.00,Wunderground v.1.15,2013-10-25 07:50:00,
2013-10-25 03:00:00,55.1,47.7,30.20,SSE,149,0.0,1.0,76,0.00,,,0.00,Wunderground v.1.15,2013-10-25 08:00:00,
2013-10-25 03:10:00,54.9,47.8,30.20,SSE,149,0.0,1.0,77,0.00,,,0.00,Wunderground v.1.15,2013-10-25 08:10:00,
2013-10-25 03:20:00,54.3,47.9,30.21,SSE,149,0.0,1.0,79,0.00,,,0.00,Wunderground v.1.15,2013-10-25 08:20:00,
2013-10-25 03:30:00,53.7,47.7,30.20,SSE,149,0.0,1.0,80,0.00,,,0.00,Wunderground v.1.15,2013-10-25 08:30:00,
2013-10-25 03:40:00,52.9,47.6,30.21,SSE,149,0.0,1.0,82,0.00,,,0.00,Wunderground v.1.15,2013-10-25 08:40:00,
2013-10-25 03:50:00,52.2,47.2,30.21,SSE,149,0.0,1.0,83,0.00,,,0.00,Wunderground v.1.15,2013-10-25 08:50:00,
2013-10-25 04:00:00,51.5,47.1,30.21,SSE,149,0.0,1.0,85,0.00,,,0.00,Wunderground v.1.15,2013-10-25 09:00:00,
2013-10-25 04:10:00,51.5,47.5,30.21,SSE,149,0.0,1.0,86,0.00,,,0.00,Wunderground v.1.15,2013-10-25 09:10:00,
2013-10-25 04:20:00,52.3,47.6,30.21,SSE,149,0.0,1.0,84,0.00,,,0.00,Wunderground v.1.15,2013-10-25 09:20:00,
2013-10-25 04:30:00,52.8,47.5,30.21,SSE,149,0.0,1.0,82,0.00,,,0.00,Wunderground v.1.15,2013-10-25 09:30:00,
2013-10-25 04:40:00,53.0,47.3,30.21,SSE,149,0.0,1.0,81,0.00,,,0.00,Wunderground v.1.15,2013-10-25 09:40:00,
2013-10-25 04:50:00,52.3,47.0,30.22,SSE,149,0.0,1.0,82,0.00,,,0.00,Wunderground v.1.15,2013-10-25 09:50:00,
2013-10-25 05:00:00,52.3,47.3,30.22,SSE,147,1.0,6.0,83,0.00,,,0.00,Wunderground v.1.15,2013-10-25 10:00:00,
2013-10-25 05:10:00,52.9,47.6,30.22,SE,138,2.0,5.0,82,0.00,,,0.00,Wunderground v.1.15,2013-10-25 10:10:00,
2013-10-25 05:20:00,53.2,47.5,30.23,SE,137,1.0,1.0,81,0.00,,,0.00,Wunderground v.1.15,2013-10-25 10:20:00,
2013-10-25 05:30:00,53.1,47.4,30.23,SE,137,0.0,1.0,81,0.00,,,0.00,Wunderground v.1.15,2013-10-25 10:30:00,
2013-10-25 05:40:00,53.0,47.7,30.23,SE,137,0.0,1.0,82,0.00,,,0.00,Wunderground v.1.15,2013-10-25 10:40:00,
2013-10-25 05:50:00,52.9,47.9,30.23,SE,137,0.0,1.0,83,0.00,,,0.00,Wunderground v.1.15,2013-10-25 10:50:00,
2013-10-25 06:00:00,52.7,48.0,30.24,SE,137,0.0,1.0,84,0.00,,,0.00,Wunderground v.1.15,2013-10-25 11:00:00,
2013-10-25 06:10:00,52.9,48.5,30.24,SE,137,0.0,1.0,85,0.00,,,0.00,Wunderground v.1.15,2013-10-25 11:10:00,
2013-10-25 06:20:00,53.2,48.8,30.24,SE,137,0.0,1.0,85,0.00,,,0.00,Wunderground v.1.15,2013-10-25 11:20:00,
2013-10-25 06:30:00,53.3,48.9,30.25,SE,137,0.0,1.0,85,0.00,,,0.00,Wunderground v.1.15,2013-10-25 11:30:00,
2013-10-25 06:40:00,53.3,48.9,30.25,SE,137,0.0,1.0,85,0.00,,,0.00,Wunderground v.1.15,2013-10-25 11:40:00,
2013-10-25 06:50:00,53.3,49.2,30.25,SE,137,0.0,1.0,86,0.00,,,0.00,Wunderground v.1.15,2013-10-25 11:50:00,
2013-10-25 07:00:00,53.3,49.5,30.25,SE,137,0.0,1.0,87,0.00,,,0.00,Wunderground v.1.15,2013-10-25 12:00:00,
2013-10-25 07:10:00,53.2,49.4,30.25,SE,137,0.0,1.0,87,0.00,,,0.00,Wunderground v.1.15,2013-10-25 12:10:00,
2013-10-25 07:20:00,53.2,49.4,30.26,SE,137,0.0,1.0,87,0.00,,,0.00,Wunderground v.1.15,2013-10-25 12:20:00,
2013-10-25 07:30:00,53.0,49.5,30.26,SE,137,0.0,1.0,88,0.00,,,0.00,Wunderground v.1.15,2013-10-25 12:30:00,
2013-10-25 07:40:00,53.0,49.5,30.26,SE,137,0.0,1.0,88,0.00,,,0.00,Wunderground v.1.15,2013-10-25 12:40:00,
2013-10-25 07:50:00,52.8,49.3,30.26,SE,137,0.0,1.0,88,0.00,,,0.00,Wunderground v.1.15,2013-10-25 12:50:00,
2013-10-25 08:00:00,52.8,49.3,30.26,SE,137,1.0,1.0,88,0.00,,,0.00,Wunderground v.1.15,2013-10-25 13:00:00,
2013-10-25 08:10:00,53.0,49.5,30.27,SE,135,2.0,2.0,88,0.00,,,0.00,Wunderground v.1.15,2013-10-25 13:10:00,
2013-10-25 08:20:00,53.4,49.6,30.27,SE,135,0.0,1.0,87,0.00,,,0.00,Wunderground v.1.15,2013-10-25 13:20:00,
2013-10-25 08:30:00,53.9,49.8,30.27,SE,135,0.0,4.0,86,0.00,,,0.00,Wunderground v.1.15,2013-10-25 13:30:00,
2013-10-25 08:40:00,54.5,49.8,30.27,SE,134,3.0,3.0,84,0.00,,,0.00,Wunderground v.1.15,2013-10-25 13:40:00,
2013-10-25 08:50:00,55.0,49.9,30.28,SE,130,4.0,4.0,83,0.00,,,0.00,Wunderground v.1.15,2013-10-25 13:50:00,
2013-10-25 09:00:00,55.6,50.5,30.28,SE,129,4.0,4.0,83,0.00,,,0.00,Wunderground v.1.15,2013-10-25 14:00:00,
2013-10-25 09:10:00,56.1,50.3,30.28,East,98,4.0,7.0,81,0.00,,,0.00,Wunderground v.1.15,2013-10-25 14:10:00,
2013-10-25 09:20:00,56.1,50.3,30.28,East,90,7.0,7.0,81,0.00,,,0.00,Wunderground v.1.15,2013-10-25 14:20:00,
2013-10-25 09:30:00,56.6,50.5,30.29,East,89,5.0,5.0,80,0.00,,,0.00,Wunderground v.1.15,2013-10-25 14:30:00,
2013-10-25 09:40:00,57.3,50.8,30.29,East,89,4.0,4.0,79,0.00,,,0.00,Wunderground v.1.15,2013-10-25 14:40:00,
2013-10-25 09:50:00,58.2,51.7,30.29,East,89,3.0,3.0,79,0.00,,,0.00,Wunderground v.1.15,2013-10-25 14:50:00,
2013-10-25 10:00:00,59.1,51.9,30.29,East,89,2.0,3.0,77,0.00,,,0.00,Wunderground v.1.15,2013-10-25 15:00:00,
2013-10-25 10:10:00,60.0,52.4,30.29,East,88,3.0,5.0,76,0.00,,,0.00,Wunderground v.1.15,2013-10-25 15:10:00,
2013-10-25 10:20:00,60.3,52.0,30.29,East,88,5.0,5.0,74,0.00,,,0.00,Wunderground v.1.15,2013-10-25 15:20:00,
2013-10-25 10:30:00,60.9,52.6,30.29,East,88,3.0,3.0,74,0.00,,,0.00,Wunderground v.1.15,2013-10-25 15:30:00,
2013-10-25 10:40:00,61.8,53.1,30.29,East,90,3.0,3.0,73,0.00,,,0.00,Wunderground v.1.15,2013-10-25 15:40:00,
2013-10-25 10:50:00,62.7,53.9,30.30,East,90,1.0,4.0,73,0.00,,,0.00,Wunderground v.1.15,2013-10-25 15:50:00,
2013-10-25 11:00:00,63.4,53.8,30.30,East,90,1.0,2.0,71,0.00,,,0.00,Wunderground v.1.15,2013-10-25 16:00:00,
2013-10-25 11:10:00,64.3,54.3,30.30,East,90,0.0,1.0,70,0.00,,,0.00,Wunderground v.1.15,2013-10-25 16:10:00,
2013-10-25 11:20:00,65.3,54.9,30.29,East,90,1.0,1.0,69,0.00,,,0.00,Wunderground v.1.15,2013-10-25 16:20:00,
2013-10-25 11:30:00,66.1,54.8,30.29,East,90,1.0,1.0,67,0.00,,,0.00,Wunderground v.1.15,2013-10-25 16:30:00,
2013-10-25 11:40:00,66.5,54.4,30.29,East,90,1.0,1.0,65,0.00,,,0.00,Wunderground v.1.15,2013-10-25 16:40:00,
2013-10-25 11:50:00,66.9,55.6,30.28,East,90,2.0,2.0,67,0.00,,,0.00,Wunderground v.1.15,2013-10-25 16:50:00,
2013-10-25 12:00:00,67.8,56.0,30.28,East,91,2.0,2.0,66,0.00,,,0.00,Wunderground v.1.15,2013-10-25 17:00:00,
2013-10-25 12:10:00,68.4,55.3,30.27,East,93,1.0,4.0,63,0.00,,,0.00,Wunderground v.1.15,2013-10-25 17:10:00,
2013-10-25 12:20:00,68.7,56.0,30.26,ESE,102,3.0,3.0,64,0.00,,,0.00,Wunderground v.1.15,2013-10-25 17:20:00,
2013-10-25 12:30:00,69.4,56.3,30.26,ESE,117,4.0,6.0,63,0.00,,,0.00,Wunderground v.1.15,2013-10-25 17:30:00,
2013-10-25 12:40:00,70.1,56.0,30.26,SE,128,6.0,6.0,61,0.00,,,0.00,Wunderground v.1.15,2013-10-25 17:40:00,
2013-10-25 12:50:00,70.7,56.1,30.25,SE,136,5.0,8.0,60,0.00,,,0.00,Wunderground v.1.15,2013-10-25 17:50:00,
2013-10-25 13:00:00,71.2,55.7,30.24,SSE,150,7.0,10.0,58,0.00,,,0.00,Wunderground v.1.15,2013-10-25 18:00:00,
2013-10-25 13:10:00,71.4,56.3,30.24,ESE,117,7.0,9.0,59,0.00,,,0.00,Wunderground v.1.15,2013-10-25 18:10:00,
2013-10-25 13:20:00,71.6,55.6,30.24,SE,133,9.0,9.0,57,0.00,,,0.00,Wunderground v.1.15,2013-10-25 18:20:00,
2013-10-25 13:30:00,72.0,54.9,30.23,SSE,157,8.0,8.0,55,0.00,,,0.00,Wunderground v.1.15,2013-10-25 18:30:00,
2013-10-25 13:40:00,72.6,54.5,30.22,SE,134,9.0,9.0,53,0.00,,,0.00,Wunderground v.1.15,2013-10-25 18:40:00,
2013-10-25 13:50:00,73.3,55.1,30.22,SSE,150,10.0,10.0,53,0.00,,,0.00,Wunderground v.1.15,2013-10-25 18:50:00,
2013-10-25 14:00:00,73.4,54.2,30.21,SE,144,12.0,12.0,51,0.00,,,0.00,Wunderground v.1.15,2013-10-25 19:00:00,
2013-10-25 14:10:00,73.0,55.4,30.21,SE,136,13.0,13.0,54,0.00,,,0.00,Wunderground v.1.15,2013-10-25 19:10:00,
2013-10-25 14:20:00,73.1,54.9,30.20,SSE,147,11.0,11.0,53,0.00,,,0.00,Wunderground v.1.15,2013-10-25 19:20:00,
2013-10-25 14:40:00,73.8,55.6,30.19,SSE,167,8.0,8.0,53,0.00,,,0.00,Wunderground v.1.15,2013-10-25 19:40:00,
2013-10-25 14:50:00,74.4,56.2,30.18,SE,141,10.0,10.0,53,0.00,,,0.00,Wunderground v.1.15,2013-10-25 19:50:00,
2013-10-25 15:00:00,73.6,54.9,30.18,SSE,151,10.0,10.0,52,0.00,,,0.00,Wunderground v.1.15,2013-10-25 20:00:00,
2013-10-25 15:10:00,74.1,55.3,30.17,SSE,158,11.0,20.0,52,0.00,,,0.00,Wunderground v.1.15,2013-10-25 20:10:00,
2013-10-25 15:20:00,75.0,55.1,30.17,South,177,12.0,12.0,50,0.00,,,0.00,Wunderground v.1.15,2013-10-25 20:20:00,
2013-10-25 15:30:00,75.1,54.1,30.17,SSE,153,9.0,20.0,48,0.00,,,0.00,Wunderground v.1.15,2013-10-25 20:30:00,
2013-10-25 15:40:00,74.7,55.4,30.17,South,175,13.0,20.0,51,0.00,,,0.00,Wunderground v.1.15,2013-10-25 20:40:00,
2013-10-25 15:50:00,74.6,55.8,30.17,SSE,167,8.0,20.0,52,0.00,,,0.00,Wunderground v.1.15,2013-10-25 20:50:00,
2013-10-25 16:00:00,74.3,56.6,30.17,SSE,157,8.0,20.0,54,0.00,,,0.00,Wunderground v.1.15,2013-10-25 21:00:00,
2013-10-25 16:10:00,73.9,55.7,30.17,South,174,6.0,20.0,53,0.00,,,0.00,Wunderground v.1.15,2013-10-25 21:10:00,
2013-10-25 16:20:00,74.2,56.0,30.17,SE,136,9.0,9.0,53,0.00,,,0.00,Wunderground v.1.15,2013-10-25 21:20:00,
2013-10-25 16:30:00,73.4,56.2,30.17,SSE,165,4.0,20.0,55,0.00,,,0.00,Wunderground v.1.15,2013-10-25 21:30:00,
2013-10-25 16:40:00,73.2,56.6,30.17,SE,142,6.0,20.0,56,0.00,,,0.00,Wunderground v.1.15,2013-10-25 21:40:00,
2013-10-25 16:50:00,73.1,56.0,30.16,SSE,157,6.0,6.0,55,0.00,,,0.00,Wunderground v.1.15,2013-10-25 21:50:00,
2013-10-25 17:00:00,73.3,56.7,30.17,SSE,153,5.0,20.0,56,0.00,,,0.00,Wunderground v.1.15,2013-10-25 22:00:00,
2013-10-25 17:10:00,73.1,57.0,30.17,SSE,153,4.0,4.0,57,0.00,,,0.00,Wunderground v.1.15,2013-10-25 22:10:00,
2013-10-25 17:20:00,73.0,56.9,30.16,SE,142,3.0,20.0,57,0.00,,,0.00,Wunderground v.1.15,2013-10-25 22:20:00,
2013-10-25 17:30:00,73.0,56.9,30.16,SE,146,3.0,20.0,57,0.00,,,0.00,Wunderground v.1.15,2013-10-25 22:30:00,
2013-10-25 17:40:00,73.0,57.3,30.16,SSE,151,4.0,20.0,58,0.00,,,0.00,Wunderground v.1.15,2013-10-25 22:40:00,
2013-10-25 17:50:00,72.8,57.6,30.16,SE,136,5.0,5.0,59,0.00,,,0.00,Wunderground v.1.15,2013-10-25 22:50:00,
2013-10-25 18:00:00,72.7,57.5,30.16,SE,134,2.0,20.0,59,0.00,,,0.00,Wunderground v.1.15,2013-10-25 23:00:00,
2013-10-25 18:10:00,72.2,57.5,30.16,SE,135,3.0,3.0,60,0.00,,,0.00,Wunderground v.1.15,2013-10-25 23:10:00,
2013-10-25 18:20:00,71.8,57.2,30.16,SE,136,4.0,20.0,60,0.00,,,0.00,Wunderground v.1.15,2013-10-25 23:20:00,
2013-10-25 18:30:00,71.4,57.7,30.16,SE,136,2.0,2.0,62,0.00,,,0.00,Wunderground v.1.15,2013-10-25 23:30:00,
2013-10-25 18:40:00,71.1,57.4,30.16,SE,136,2.0,20.0,62,0.00,,,0.00,Wunderground v.1.15,2013-10-25 23:40:00,
2013-10-25 18:50:00,70.6,57.8,30.15,SE,136,1.0,1.0,64,0.00,,,0.00,Wunderground v.1.15,2013-10-25 23:50:00,
2013-10-25 19:00:00,70.0,57.7,30.15,SE,136,0.0,20.0,65,0.00,,,0.00,Wunderground v.1.15,2013-10-26 00:00:00,
2013-10-25 19:10:00,69.4,57.5,30.16,SE,136,0.0,20.0,66,0.00,,,0.00,Wunderground v.1.15,2013-10-26 00:10:00,
2013-10-25 19:20:00,68.8,57.4,30.16,SE,136,0.0,20.0,67,0.00,,,0.00,Wunderground v.1.15,2013-10-26 00:20:00,
2013-10-25 19:30:00,68.3,57.3,30.16,SE,136,0.0,20.0,68,0.00,,,0.00,Wunderground v.1.15,2013-10-26 00:30:00,
2013-10-25 19:40:00,67.9,57.4,30.16,SE,136,0.0,20.0,69,0.00,,,0.00,Wunderground v.1.15,2013-10-26 00:40:00,
2013-10-25 19:50:00,67.4,57.3,30.16,SE,136,0.0,20.0,70,0.00,,,0.00,Wunderground v.1.15,2013-10-26 00:50:00,
2013-10-25 20:00:00,66.9,57.2,30.16,SE,136,0.0,20.0,71,0.00,,,0.00,Wunderground v.1.15,2013-10-26 01:00:00,
2013-10-25 20:10:00,66.5,57.2,30.16,SE,136,0.0,20.0,72,0.00,,,0.00,Wunderground v.1.15,2013-10-26 01:10:00,
2013-10-25 20:20:00,66.5,57.2,30.16,SE,135,1.0,1.0,72,0.00,,,0.00,Wunderground v.1.15,2013-10-26 01:20:00,
2013-10-25 20:30:00,66.2,57.3,30.16,SE,135,0.0,20.0,73,0.00,,,0.00,Wunderground v.1.15,2013-10-26 01:30:00,
2013-10-25 20:40:00,66.2,57.3,30.17,SE,134,0.0,20.0,73,0.00,,,0.00,Wunderground v.1.15,2013-10-26 01:40:00,
2013-10-25 20:50:00,65.9,57.4,30.17,SE,134,0.0,20.0,74,0.00,,,0.00,Wunderground v.1.15,2013-10-26 01:50:00,
2013-10-25 21:00:00,65.6,57.5,30.16,SE,132,4.0,4.0,75,0.00,,,0.00,Wunderground v.1.15,2013-10-26 02:00:00,
2013-10-25 21:10:00,65.4,57.6,30.16,SE,130,4.0,20.0,76,0.00,,,0.00,Wunderground v.1.15,2013-10-26 02:10:00,
2013-10-25 21:20:00,65.3,57.5,30.16,SE,131,5.0,20.0,76,0.00,,,0.00,Wunderground v.1.15,2013-10-26 02:20:00,
2013-10-25 21:30:00,65.1,57.3,30.16,SE,130,3.0,20.0,76,0.00,,,0.00,Wunderground v.1.15,2013-10-26 02:30:00,
2013-10-25 21:40:00,64.9,57.5,30.16,SE,126,4.0,4.0,77,0.00,,,0.00,Wunderground v.1.15,2013-10-26 02:40:00,
2013-10-25 21:50:00,64.7,57.3,30.17,SE,126,5.0,5.0,77,0.00,,,0.00,Wunderground v.1.15,2013-10-26 02:50:00,
2013-10-25 22:00:00,64.5,57.5,30.16,ESE,121,4.0,20.0,78,0.00,,,0.00,Wunderground v.1.15,2013-10-26 03:00:00,
2013-10-25 22:10:00,64.4,57.4,30.16,ESE,120,3.0,20.0,78,0.00,,,0.00,Wunderground v.1.15,2013-10-26 03:10:00,
2013-10-25 22:20:00,64.1,57.5,30.16,ESE,120,3.0,3.0,79,0.00,,,0.00,Wunderground v.1.15,2013-10-26 03:20:00,
2013-10-25 22:30:00,63.8,57.5,30.16,ESE,122,3.0,3.0,80,0.00,,,0.00,Wunderground v.1.15,2013-10-26 03:30:00,
2013-10-25 22:40:00,63.6,57.3,30.16,ESE,123,3.0,20.0,80,0.00,,,0.00,Wunderground v.1.15,2013-10-26 03:40:00,
2013-10-25 22:50:00,63.4,57.5,30.16,SE,128,3.0,3.0,81,0.00,,,0.00,Wunderground v.1.15,2013-10-26 03:50:00,
2013-10-25 23:00:00,63.0,57.1,30.16,SE,128,1.0,1.0,81,0.00,,,0.00,Wunderground v.1.15,2013-10-26 04:00:00,
2013-10-25 23:10:00,62.8,57.2,30.16,SE,129,2.0,20.0,82,0.00,,,0.00,Wunderground v.1.15,2013-10-26 04:10:00,
2013-10-25 23:20:00,62.5,57.3,30.15,SE,130,1.0,1.0,83,0.00,,,0.00,Wunderground v.1.15,2013-10-26 04:20:00,
2013-10-25 23:30:00,62.4,57.2,30.15,SE,130,0.0,20.0,83,0.00,,,0.00,Wunderground v.1.15,2013-10-26 04:30:00,
2013-10-25 23:40:00,62.8,57.6,30.16,SE,130,1.0,1.0,83,0.00,,,0.00,Wunderground v.1.15,2013-10-26 04:40:00,
2013-10-25 23:50:00,62.8,57.2,30.16,SE,130,0.0,20.0,82,0.00,,,0.00,Wunderground v.1.15,2013-10-26 04:50:00,